This is the latest recevied weather packets stored in our database for station/object LA9UTA-13. If no packets are shown the sender has not sent any weather packets the latest 10 day(s).
| Time | Temp. | Humidity | Pressure | Rain* | Wind** | Luminosity | Snow |
|---|---|---|---|---|---|---|---|
| 1777630682 | 16.11° C | 51% | 1023.1 hPa | 0 mm | - | 527 W/m² | - |
| 1777629482 | 15° C | 50% | 1023.1 hPa | 0 mm | - | 512 W/m² | - |
| 1777628282 | 14.44° C | 52% | 1023.2 hPa | 0 mm | - | 491 W/m² | - |
| 1777627082 | 13.33° C | 61% | 1023.3 hPa | 0 mm | - | 465 W/m² | - |
| 1777625882 | 13.33° C | 62% | 1023.3 hPa | 0 mm | - | 442 W/m² | - |
| 1777625337 | 12.22° C | 66% | 1023.4 hPa | 0 mm | - | 425 W/m² | - |
| 1777624682 | 12.22° C | 66% | 1023.4 hPa | 0 mm | - | 425 W/m² | - |
| 1777623483 | 13.33° C | 64% | 1023.3 hPa | 0 mm | - | 392 W/m² | - |
| 1777622284 | 12.22° C | 68% | 1023.4 hPa | 0 mm | - | 361 W/m² | - |
| 1777621082 | 14.44° C | 62% | 1023.2 hPa | 0 mm | - | 328 W/m² | - |
| 1777619882 | 13.33° C | 66% | 1023.3 hPa | 0 mm | - | 293 W/m² | - |
| 1777618682 | 10° C | 74% | 1024.6 hPa | 0 mm | - | 46 W/m² | - |
| 1777617482 | 8.33° C | 81% | 1024.8 hPa | 0 mm | - | 50 W/m² | - |
| 1777616282 | 7.22° C | 82% | 1024.9 hPa | 0 mm | - | 40 W/m² | - |
| 1777615082 | 6.67° C | 84% | 1025 hPa | 0 mm | - | 64 W/m² | - |
| 1777613882 | 6.11° C | 87% | 1025 hPa | 0 mm | - | 75 W/m² | - |
| 1777613328 | 5.56° C | 89% | 1025.1 hPa | 0 mm | - | 63 W/m² | - |
| 1777612682 | 5.56° C | 89% | 1025.1 hPa | 0 mm | - | 63 W/m² | - |
| 1777611482 | 4.44° C | 95% | 1025.2 hPa | 0 mm | - | 52 W/m² | - |
| 1777610282 | 3.89° C | 95% | 1025.2 hPa | 0 mm | - | 27 W/m² | - |
| 1777609413 | 3.89° C | 95% | 1025.3 hPa | 0 mm | - | 21 W/m² | - |
| 1777609116 | 3.89° C | 95% | 1025.3 hPa | 0 mm | - | 21 W/m² | - |
| 1777609082 | 3.89° C | 95% | 1025.3 hPa | 0 mm | - | 21 W/m² | - |
| 1777607882 | 3.89° C | 95% | 1025.2 hPa | 0 mm | - | 15 W/m² | - |
| 1777605482 | 3.89° C | 95% | 1025.3 hPa | 0 mm | - | 3 W/m² | - |
* Rain latest hour (hover to see other rain measurements)
** Current wind speed in m/s (hover to see current wind gust speed)